BREEZE-M DEB, 41320

Orbit data source: Space-Track

BREEZE-M DEB, 41320 is space debris in HEO originally from a launch on Thu, 17 May 2012 UTC launched from the Tyuratam Missile And Space Complex (TTMTR). Debris objects in space refer to the collection of defunct objects orbiting the Earth. Examples of debris include non-operational satellites, rocket bodies, and fragments generated from explosions, collisions, or faulty payload assembly.

Loading next visibility...
Identifier
41320, 2012-026G
Orbit
HEO
Country
Flag of CISCIS
Related business
Manufacturer
Khrunichev
Mission
Spacecraft
Bus & Motor
Unknown
Mass
Unknown
Launch date (UTC)
2012-05-17 (14 years ago)
Launch vehicle
Unknown
Launch site
Tyuratam Missile And Space Complex (TTMTR)
Object type
Payload
Rocket body
Debris
Shape & HBR
Unknown shape, 1.1 m
Radar Cross Section
RCS unknown

Expand to show TLE details & history
Last TLE update: 3 days ago

TLE from 3 days ago
0 BREEZE-M DEB
1 41320U 12026G   25351.70033511 -.00000041  00000-0  00000-0 0  9993
2 41320   9.9891 155.2913 4102461  11.3474 355.6045  1.76040232 64230
Epoch: 2025-12-17T16:48Z
TLE epoch observation values (Epoch: 2025-12-17T16:48:28.953Z)
Latitude
-0.00002°
Longitude
176.55445°
Altitude
10,835.468 km
Speed
5.706 km/s
True Right ascension
10h 20m 57s
True Declination
0° 00' 00"
Sunlit
Object was in daylight at epoch
Visualization orbit readout
Latitude
Unknown
Longitude
Unknown
Altitude
Unknown
Speed
Unknown
Apparent Right ascension
Unknown
Apparent Declination
Unknown
Sunlit
N/A
Visualization observer readout
Local Sidereal Time
22:20:45
Azimuth
Unknown
Elevation
Unknown
Doppler factor
Unknown
Orbital elements
Apogee altitude
34,483.687 km
Perigee altitude
10,709.958 km
Semi-major axis
28,974.96 km
Eccentricity
0.41025
Inclination
9.9891°
RAAN
155.2913°
Arg. of periapsis
11.3474°
True anomaly
348.51961°
Mean anomaly
355.6045°
Eccentric anomaly
352.56142°
Mean motion
0.44006 °/min
Orbital period
818.08 mins
BSTAR
0
Loading maneuver chart data...
Computing Atmospheric mass density...
Loading historical data...
Loading historical data...
Loading historical data...
Loading historical data...
Loading historical data...
Loading historical data...
Loading historical data...

Documentation

Showing up to 5 results
|